STARLINK-34932, 65179

Orbit data source: Space-Track

STARLINK-34932, 65179 is a payload satellite owned by SpaceX/Seattle (US) in SSO that was launched on Thu, 14 Aug 2025 UTC via an FALCON 9 launch vehicle from the Air Force Western Test Range (AFWTR). Payload-class satellites include a variety of spacecraft equipped with specific instruments for various scientific and technological missions. These include communications satellites like Starlink; space stations such as the ISS; scientific satellites like the Hubble; Earth observation satellites from companies like Planet Labs, Umbra, and HawkEye 360; GPS; miniature CubeSats for education and research; and military/defense satellites.

Loading next visibility...
Identifier
65179, 2025-175F
Orbit
SSO
Country
Flag of USUS
Related business
Manufacturer
SpaceX/Seattle
Mission
Operational Commercial Communications
Bus & Motor
STARLINK V2MO, Unknown motor
Mass
575 kg wet, ~530 kg dry
Launch date (UTC)
2025-08-14 (10 months ago)
Launch vehicle
FALCON 9
Launch site
Air Force Western Test Range (AFWTR)
Object type
Payload
Rocket body
Debris
Shape & HBR
Box + 2 Pan, 17.7 m
Radar Cross Section
36.964 m², Large (>1 m²)

Expand to show TLE details & history
Last TLE update: 15 hours ago

TLE from 15 hours ago
0 STARLINK-34932
1 65179U 25175F   26171.20579076  .00010359  00000-0  72088-3 0  9997
2 65179  97.3413  42.5731 0001754 103.8713 256.2709 15.05649657 48066
Epoch: 2026-06-20T04:56Z
TLE epoch observation values (Epoch: 2026-06-20T04:56:20.321Z)
Latitude
-0.00011°
Longitude
60.06469°
Altitude
552.874 km
Speed
7.585 km/s
True Right ascension
02h 50m 17s
True Declination
0° 00' 00"
Sunlit
Object was in daylight at epoch
Visualization orbit readout
Latitude
Unknown
Longitude
Unknown
Altitude
Unknown
Speed
Unknown
Apparent Right ascension
Unknown
Apparent Declination
Unknown
Sunlit
N/A
Visualization observer readout
Local Sidereal Time
07:16:56
Azimuth
Unknown
Elevation
Unknown
Doppler factor
Unknown
Orbital elements
Apogee altitude
547.709 km
Perigee altitude
545.28 km
Semi-major axis
6,924.631 km
Eccentricity
0.00018
Inclination
97.3413°
RAAN
42.5731°
Arg. of periapsis
103.8713°
True anomaly
256.25138°
Mean anomaly
256.2709°
Eccentric anomaly
256.26114°
Mean motion
3.76659 °/min
Orbital period
95.58 mins
BSTAR
0.00072088
Loading maneuver chart data...
Computing Atmospheric mass density...
Loading historical data...
Loading historical data...
Loading historical data...
Loading historical data...
Loading historical data...
Loading historical data...
Loading historical data...

Documentation

Showing up to 5 results
|